Time,TemperatureF,DewpointF,PressureIn,WindDirection,WindDirectionDegrees,WindSpeedMPH,WindSpeedGustMPH,Humidity,HourlyPrecipIn,Conditions,Clouds,dailyrainin,SolarRadiationWatts/m^2,SoftwareType,DateUTC
2017-10-23 00:02:00,50.2,35.6,30.52,SSE,158,0.0,0.0,57,0.00,,,0.00,0.00,Weather logger V3.0.,2017-10-23 07:02:00,
2017-10-23 00:07:00,50.2,36.9,30.52,SE,145,0.0,0.0,60,0.00,,,0.00,0.00,Weather logger V3.0.,2017-10-23 07:07:00,
2017-10-23 00:12:00,50.0,37.0,30.53,NW,322,0.0,0.0,61,0.00,,,0.00,0.00,Weather logger V3.0.,2017-10-23 07:12:00,
2017-10-23 00:17:00,49.8,36.9,30.53,NW,311,0.9,2.5,61,0.00,,,0.00,0.00,Weather logger V3.0.,2017-10-23 07:17:00,
2017-10-23 00:23:00,49.8,37.4,30.52,ESE,106,0.0,0.0,62,0.00,,,0.00,0.00,Weather logger V3.0.,2017-10-23 07:23:00,
2017-10-23 00:28:00,49.6,37.2,30.53,SSE,163,0.0,0.0,62,0.00,,,0.00,0.00,Weather logger V3.0.,2017-10-23 07:28:00,
2017-10-23 00:33:00,49.5,37.0,30.53,SW,218,0.0,0.0,62,0.00,,,0.00,0.00,Weather logger V3.0.,2017-10-23 07:33:00,
2017-10-23 00:38:00,49.6,37.2,30.53,NNW,344,0.0,0.0,62,0.00,,,0.00,0.00,Weather logger V3.0.,2017-10-23 07:38:00,
2017-10-23 00:43:00,49.6,37.6,30.53,NNW,341,0.0,0.0,63,0.00,,,0.00,0.00,Weather logger V3.0.,2017-10-23 07:43:00,
2017-10-23 00:48:00,49.5,37.4,30.54,NNW,336,0.0,0.0,63,0.00,,,0.00,0.00,Weather logger V3.0.,2017-10-23 07:48:00,
2017-10-23 00:53:00,49.5,37.0,30.53,WNW,299,0.0,0.0,62,0.00,,,0.00,0.00,Weather logger V3.0.,2017-10-23 07:53:00,
2017-10-23 00:58:00,49.6,37.6,30.54,ESE,108,0.0,0.0,63,0.00,,,0.00,0.00,Weather logger V3.0.,2017-10-23 07:58:00,
2017-10-23 01:03:00,49.6,37.6,30.54,SE,143,0.0,0.0,63,0.00,,,0.00,0.00,Weather logger V3.0.,2017-10-23 08:03:00,
2017-10-23 01:08:00,49.6,37.9,30.53,South,186,0.0,0.0,64,0.00,,,0.00,0.00,Weather logger V3.0.,2017-10-23 08:08:00,
2017-10-23 01:13:00,49.5,37.8,30.54,SW,236,0.0,0.0,64,0.00,,,0.00,0.00,Weather logger V3.0.,2017-10-23 08:13:00,
2017-10-23 01:18:00,49.5,37.8,30.54,SW,236,0.0,0.0,64,0.00,,,0.00,0.00,Weather logger V3.0.,2017-10-23 08:18:00,
2017-10-23 01:23:00,49.5,38.3,30.54,WSW,237,0.0,0.0,65,0.00,,,0.00,0.00,Weather logger V3.0.,2017-10-23 08:23:00,
2017-10-23 01:28:00,49.3,38.5,30.54,NW,326,2.0,2.5,66,0.00,,,0.00,0.00,Weather logger V3.0.,2017-10-23 08:28:00,
2017-10-23 01:33:00,49.5,38.3,30.54,NW,308,0.0,0.0,65,0.00,,,0.00,0.00,Weather logger V3.0.,2017-10-23 08:33:00,
2017-10-23 01:39:00,49.5,38.3,30.53,East,85,0.0,0.0,65,0.00,,,0.00,0.00,Weather logger V3.0.,2017-10-23 08:39:00,
2017-10-23 01:44:00,49.5,37.8,30.54,East,83,0.0,0.0,64,0.00,,,0.00,0.00,Weather logger V3.0.,2017-10-23 08:44:00,
2017-10-23 01:49:00,49.6,37.9,30.54,NW,314,1.3,2.5,64,0.00,,,0.00,0.00,Weather logger V3.0.,2017-10-23 08:49:00,
2017-10-23 01:54:00,49.8,38.1,30.55,NW,307,0.0,0.0,64,0.00,,,0.00,0.00,Weather logger V3.0.,2017-10-23 08:54:00,
2017-10-23 01:59:00,49.6,37.6,30.54,SE,132,0.0,0.0,63,0.00,,,0.00,0.00,Weather logger V3.0.,2017-10-23 08:59:00,
2017-10-23 02:04:00,49.5,37.4,30.54,SE,139,0.0,0.0,63,0.00,,,0.00,0.00,Weather logger V3.0.,2017-10-23 09:04:00,
2017-10-23 02:09:00,49.5,37.8,30.55,SW,217,0.0,0.0,64,0.00,,,0.00,0.00,Weather logger V3.0.,2017-10-23 09:09:00,
2017-10-23 02:14:00,49.5,37.8,30.55,SW,215,0.0,0.0,64,0.00,,,0.00,0.00,Weather logger V3.0.,2017-10-23 09:14:00,
2017-10-23 02:19:00,49.3,38.1,30.55,SW,236,0.0,0.0,65,0.00,,,0.00,0.00,Weather logger V3.0.,2017-10-23 09:19:00,
2017-10-23 02:24:00,49.3,38.1,30.55,West,281,0.0,0.0,65,0.00,,,0.00,0.00,Weather logger V3.0.,2017-10-23 09:24:00,
2017-10-23 02:29:00,49.3,38.1,30.55,South,190,0.0,0.0,65,0.00,,,0.00,0.00,Weather logger V3.0.,2017-10-23 09:29:00,
2017-10-23 02:34:00,49.3,38.1,30.56,SSW,192,0.0,0.0,65,0.00,,,0.00,0.00,Weather logger V3.0.,2017-10-23 09:34:00,
2017-10-23 02:39:00,49.1,37.9,30.56,SW,220,0.0,0.0,65,0.00,,,0.00,0.00,Weather logger V3.0.,2017-10-23 09:39:00,
2017-10-23 02:44:00,48.9,38.1,30.56,SSW,209,0.0,0.0,66,0.00,,,0.00,0.00,Weather logger V3.0.,2017-10-23 09:44:00,
2017-10-23 02:49:00,48.7,37.9,30.56,South,189,0.0,0.0,66,0.00,,,0.00,0.00,Weather logger V3.0.,2017-10-23 09:49:00,
2017-10-23 02:55:00,48.4,37.9,30.56,South,191,0.0,0.0,67,0.00,,,0.00,0.00,Weather logger V3.0.,2017-10-23 09:55:00,
2017-10-23 03:00:00,48.2,37.8,30.56,SSW,192,0.0,0.0,67,0.00,,,0.00,0.00,Weather logger V3.0.,2017-10-23 10:00:00,
2017-10-23 03:05:00,48.2,38.1,30.56,South,191,0.0,0.0,68,0.00,,,0.00,0.00,Weather logger V3.0.,2017-10-23 10:05:00,
2017-10-23 03:10:00,48.0,38.7,30.56,South,190,0.0,0.0,70,0.00,,,0.00,0.00,Weather logger V3.0.,2017-10-23 10:10:00,
2017-10-23 03:15:00,48.0,38.7,30.56,South,189,0.0,0.0,70,0.00,,,0.00,0.00,Weather logger V3.0.,2017-10-23 10:15:00,
2017-10-23 03:20:00,48.2,38.8,30.56,SSW,195,0.0,0.0,70,0.00,,,0.00,0.00,Weather logger V3.0.,2017-10-23 10:20:00,
2017-10-23 03:25:00,48.2,39.2,30.56,WSW,242,0.0,0.0,71,0.00,,,0.00,0.00,Weather logger V3.0.,2017-10-23 10:25:00,
2017-10-23 03:30:00,48.2,39.6,30.56,SSW,207,0.0,0.0,72,0.00,,,0.00,0.00,Weather logger V3.0.,2017-10-23 10:30:00,
2017-10-23 03:35:00,48.2,39.2,30.56,WSW,243,0.0,0.0,71,0.00,,,0.00,0.00,Weather logger V3.0.,2017-10-23 10:35:00,
2017-10-23 03:40:00,48.6,39.6,30.56,WSW,237,0.0,0.0,71,0.00,,,0.00,0.00,Weather logger V3.0.,2017-10-23 10:40:00,
2017-10-23 03:45:00,48.7,39.7,30.56,WSW,237,0.0,0.0,71,0.00,,,0.00,0.00,Weather logger V3.0.,2017-10-23 10:45:00,
2017-10-23 03:50:00,48.9,39.9,30.55,SW,222,0.0,0.0,71,0.00,,,0.00,0.00,Weather logger V3.0.,2017-10-23 10:50:00,
2017-10-23 03:55:00,48.7,40.1,30.56,SW,220,0.0,0.0,72,0.00,,,0.00,0.00,Weather logger V3.0.,2017-10-23 10:55:00,
2017-10-23 04:01:00,48.9,39.9,30.56,West,271,0.2,2.5,71,0.00,,,0.00,0.00,Weather logger V3.0.,2017-10-23 11:01:00,
2017-10-23 04:06:00,49.3,40.3,30.56,WSW,252,0.0,0.0,71,0.00,,,0.00,0.00,Weather logger V3.0.,2017-10-23 11:06:00,
2017-10-23 04:11:00,49.3,40.6,30.56,SW,226,0.0,0.0,72,0.00,,,0.00,0.00,Weather logger V3.0.,2017-10-23 11:11:00,
2017-10-23 04:13:00,49.3,40.6,30.56,SW,226,0.0,0.0,72,0.00,,,0.00,0.00,Weather logger V3.0.,2017-10-23 11:13:00,
2017-10-23 04:18:00,49.1,40.5,30.56,SW,229,0.0,0.0,72,0.00,,,0.00,0.00,Weather logger V3.0.,2017-10-23 11:18:00,
2017-10-23 04:23:00,49.3,40.6,30.56,SW,230,0.0,0.0,72,0.00,,,0.00,0.00,Weather logger V3.0.,2017-10-23 11:23:00,
2017-10-23 04:28:00,49.5,40.8,30.57,WSW,242,0.0,0.0,72,0.00,,,0.00,0.00,Weather logger V3.0.,2017-10-23 11:28:00,
2017-10-23 04:33:00,49.3,40.6,30.56,WSW,249,0.0,0.0,72,0.00,,,0.00,0.00,Weather logger V3.0.,2017-10-23 11:33:00,
2017-10-23 04:39:00,49.1,40.5,30.57,SSW,205,0.0,0.0,72,0.00,,,0.00,0.00,Weather logger V3.0.,2017-10-23 11:39:00,
2017-10-23 04:44:00,48.9,40.3,30.56,SSW,192,0.0,0.0,72,0.00,,,0.00,0.00,Weather logger V3.0.,2017-10-23 11:44:00,
2017-10-23 04:49:00,48.6,39.9,30.56,SSW,200,0.0,0.0,72,0.00,,,0.00,0.00,Weather logger V3.0.,2017-10-23 11:49:00,
2017-10-23 04:54:00,48.4,39.7,30.56,SW,233,0.0,0.0,72,0.00,,,0.00,0.00,Weather logger V3.0.,2017-10-23 11:54:00,
2017-10-23 04:59:00,48.2,39.9,30.56,SSW,208,0.0,0.0,73,0.00,,,0.00,0.00,Weather logger V3.0.,2017-10-23 11:59:00,
2017-10-23 05:04:00,47.8,39.6,30.57,SSW,205,0.0,0.0,73,0.00,,,0.00,0.00,Weather logger V3.0.,2017-10-23 12:04:00,
2017-10-23 05:09:00,47.7,39.0,30.57,SSW,209,0.0,0.0,72,0.00,,,0.00,0.00,Weather logger V3.0.,2017-10-23 12:09:00,
2017-10-23 05:11:00,47.7,39.0,30.57,SW,226,0.0,0.0,72,0.00,,,0.00,0.00,Weather logger V3.0.,2017-10-23 12:11:00,
2017-10-23 05:16:00,48.0,39.4,30.57,SW,225,0.0,0.0,72,0.00,,,0.00,0.00,Weather logger V3.0.,2017-10-23 12:16:00,
2017-10-23 05:21:00,48.2,39.6,30.56,SW,230,0.0,0.0,72,0.00,,,0.00,0.00,Weather logger V3.0.,2017-10-23 12:21:00,
2017-10-23 05:26:00,48.4,39.7,30.57,SW,230,0.0,0.0,72,0.00,,,0.00,0.00,Weather logger V3.0.,2017-10-23 12:26:00,
2017-10-23 05:31:00,48.7,40.1,30.57,SW,230,0.0,0.0,72,0.00,,,0.00,0.00,Weather logger V3.0.,2017-10-23 12:31:00,
2017-10-23 05:36:00,48.9,40.6,30.57,SSW,208,0.0,0.0,73,0.00,,,0.00,0.00,Weather logger V3.0.,2017-10-23 12:36:00,
2017-10-23 05:41:00,49.1,40.8,30.56,SSW,208,0.0,0.0,73,0.00,,,0.00,0.00,Weather logger V3.0.,2017-10-23 12:41:00,
2017-10-23 05:46:00,48.9,40.3,30.57,SSW,210,0.0,0.0,72,0.00,,,0.00,0.00,Weather logger V3.0.,2017-10-23 12:46:00,
2017-10-23 05:51:00,48.9,40.6,30.57,SSW,208,0.0,0.0,73,0.00,,,0.00,0.00,Weather logger V3.0.,2017-10-23 12:51:00,
2017-10-23 05:56:00,48.7,40.5,30.57,SSW,213,0.0,0.0,73,0.00,,,0.00,0.00,Weather logger V3.0.,2017-10-23 12:56:00,
2017-10-23 06:01:00,48.6,40.3,30.57,SSW,209,0.0,0.0,73,0.00,,,0.00,0.00,Weather logger V3.0.,2017-10-23 13:01:00,
2017-10-23 06:07:00,48.6,40.3,30.57,SSW,212,0.0,0.0,73,0.00,,,0.00,0.00,Weather logger V3.0.,2017-10-23 13:07:00,
2017-10-23 06:11:00,48.6,40.3,30.57,SW,218,0.0,0.0,73,0.00,,,0.00,0.00,Weather logger V3.0.,2017-10-23 13:11:00,
2017-10-23 06:16:00,48.9,40.3,30.57,SW,232,0.0,0.0,72,0.00,,,0.00,0.00,Weather logger V3.0.,2017-10-23 13:16:00,
2017-10-23 06:26:00,49.3,41.0,30.58,SW,215,0.0,0.0,73,0.00,,,0.00,0.00,Weather logger V3.0.,2017-10-23 13:26:00,
2017-10-23 06:31:00,49.5,41.2,30.58,SSW,213,0.0,0.0,73,0.00,,,0.00,0.00,Weather logger V3.0.,2017-10-23 13:31:00,
2017-10-23 06:36:00,49.5,41.2,30.58,SSW,203,0.0,0.0,73,0.00,,,0.00,0.00,Weather logger V3.0.,2017-10-23 13:36:00,
2017-10-23 06:41:00,49.3,41.0,30.58,SSW,202,0.0,0.0,73,0.00,,,0.00,0.00,Weather logger V3.0.,2017-10-23 13:41:00,
2017-10-23 06:44:00,49.1,40.8,30.58,SSW,199,0.0,0.0,73,0.00,,,0.00,0.00,Weather logger V3.0.,2017-10-23 13:44:00,
2017-10-23 06:49:00,48.9,40.6,30.58,SSW,206,0.0,0.0,73,0.00,,,0.00,0.00,Weather logger V3.0.,2017-10-23 13:49:00,
2017-10-23 06:54:00,48.9,40.6,30.58,SSW,208,0.0,0.0,73,0.00,,,0.00,0.00,Weather logger V3.0.,2017-10-23 13:54:00,
2017-10-23 06:59:00,48.9,40.6,30.59,SSW,196,0.0,0.0,73,0.00,,,0.00,0.00,Weather logger V3.0.,2017-10-23 13:59:00,
2017-10-23 07:04:00,48.9,40.6,30.59,SSW,196,0.0,0.0,73,0.00,,,0.00,0.00,Weather logger V3.0.,2017-10-23 14:04:00,
2017-10-23 07:09:00,48.9,40.6,30.59,SSW,204,0.0,0.0,73,0.00,,,0.00,0.00,Weather logger V3.0.,2017-10-23 14:09:00,
2017-10-23 07:14:00,48.9,41.0,30.59,SSW,202,0.0,0.0,74,0.00,,,0.00,0.00,Weather logger V3.0.,2017-10-23 14:14:00,
2017-10-23 07:19:00,48.7,40.5,30.59,SSW,200,0.0,0.0,73,0.00,,,0.00,0.00,Weather logger V3.0.,2017-10-23 14:19:00,
2017-10-23 07:25:00,48.6,40.6,30.59,SSW,198,0.0,0.0,74,0.00,,,0.00,0.00,Weather logger V3.0.,2017-10-23 14:25:00,
2017-10-23 07:30:00,48.2,40.3,30.59,SSW,195,0.0,0.0,74,0.00,,,0.00,0.00,Weather logger V3.0.,2017-10-23 14:30:00,
2017-10-23 07:35:00,48.0,40.1,30.59,SSW,196,0.0,0.0,74,0.00,,,0.00,0.00,Weather logger V3.0.,2017-10-23 14:35:00,
2017-10-23 07:40:00,47.8,39.9,30.59,SSW,196,0.0,0.0,74,0.00,,,0.00,0.69,Weather logger V3.0.,2017-10-23 14:40:00,
2017-10-23 07:45:00,47.7,39.7,30.59,SSW,195,0.0,0.0,74,0.00,,,0.00,2.23,Weather logger V3.0.,2017-10-23 14:45:00,
2017-10-23 07:50:00,47.7,39.4,30.59,South,189,0.0,0.0,73,0.00,,,0.00,4.81,Weather logger V3.0.,2017-10-23 14:50:00,
2017-10-23 07:55:00,47.7,39.4,30.59,SW,214,0.0,0.0,73,0.00,,,0.00,7.57,Weather logger V3.0.,2017-10-23 14:55:00,
2017-10-23 08:00:00,48.0,39.7,30.59,SSW,211,0.0,0.0,73,0.00,,,0.00,11.54,Weather logger V3.0.,2017-10-23 15:00:00,
2017-10-23 08:05:00,48.2,39.9,30.59,SSW,211,0.0,0.0,73,0.00,,,0.00,13.55,Weather logger V3.0.,2017-10-23 15:05:00,
2017-10-23 08:10:00,48.7,40.1,30.59,SSW,211,0.0,0.0,72,0.00,,,0.00,17.30,Weather logger V3.0.,2017-10-23 15:10:00,
2017-10-23 08:15:00,49.1,40.5,30.59,SSW,210,0.0,0.0,72,0.00,,,0.00,21.51,Weather logger V3.0.,2017-10-23 15:15:00,
2017-10-23 08:20:00,49.6,41.0,30.59,SW,221,0.0,0.0,72,0.00,,,0.00,24.53,Weather logger V3.0.,2017-10-23 15:20:00,
2017-10-23 08:25:00,50.0,41.4,30.59,SW,220,0.0,0.0,72,0.00,,,0.00,28.83,Weather logger V3.0.,2017-10-23 15:25:00,
2017-10-23 08:31:00,50.4,41.7,30.59,ESE,116,0.0,0.0,72,0.00,,,0.00,35.19,Weather logger V3.0.,2017-10-23 15:31:00,
2017-10-23 08:36:00,50.7,42.1,30.59,SE,144,0.0,0.0,72,0.00,,,0.00,42.89,Weather logger V3.0.,2017-10-23 15:36:00,
2017-10-23 08:41:00,51.1,42.1,30.59,SSE,148,0.0,0.0,71,0.00,,,0.00,52.04,Weather logger V3.0.,2017-10-23 15:41:00,
2017-10-23 08:46:00,51.3,42.3,30.59,SSE,153,0.0,0.0,71,0.00,,,0.00,55.84,Weather logger V3.0.,2017-10-23 15:46:00,
2017-10-23 08:51:00,51.3,41.9,30.59,SSW,198,0.0,0.0,70,0.00,,,0.00,55.06,Weather logger V3.0.,2017-10-23 15:51:00,
2017-10-23 08:56:00,51.6,42.3,30.59,SSW,211,0.0,0.0,70,0.00,,,0.00,50.39,Weather logger V3.0.,2017-10-23 15:56:00,
2017-10-23 09:01:00,51.8,41.9,30.59,SSW,207,0.0,0.0,69,0.00,,,0.00,48.56,Weather logger V3.0.,2017-10-23 16:01:00,
2017-10-23 09:06:00,52.0,41.0,30.60,SSW,205,0.0,0.0,66,0.00,,,0.00,46.87,Weather logger V3.0.,2017-10-23 16:06:00,
2017-10-23 09:11:00,52.2,38.3,30.60,SSW,205,0.0,0.0,59,0.00,,,0.00,47.65,Weather logger V3.0.,2017-10-23 16:11:00,
2017-10-23 09:16:00,52.7,37.9,30.60,SSW,198,0.0,0.0,57,0.00,,,0.00,46.41,Weather logger V3.0.,2017-10-23 16:16:00,
2017-10-23 09:21:00,53.6,36.0,30.60,East,97,0.4,2.5,51,0.00,,,0.00,49.11,Weather logger V3.0.,2017-10-23 16:21:00,
2017-10-23 09:26:00,54.3,34.5,30.60,East,91,0.4,2.5,47,0.00,,,0.00,49.66,Weather logger V3.0.,2017-10-23 16:26:00,
2017-10-23 09:31:00,54.9,34.5,30.60,ESE,119,0.0,0.0,46,0.00,,,0.00,50.94,Weather logger V3.0.,2017-10-23 16:31:00,
2017-10-23 09:36:00,55.4,34.5,30.60,SSW,195,0.4,2.5,45,0.00,,,0.00,52.82,Weather logger V3.0.,2017-10-23 16:36:00,
2017-10-23 09:47:00,56.5,33.6,30.60,SSE,160,0.0,0.0,42,0.00,,,0.00,55.98,Weather logger V3.0.,2017-10-23 16:47:00,
2017-10-23 09:52:00,56.8,33.4,30.60,ESE,114,0.0,0.0,41,0.00,,,0.00,57.72,Weather logger V3.0.,2017-10-23 16:52:00,
2017-10-23 09:57:00,57.2,33.1,30.59,SE,133,0.0,0.0,40,0.00,,,0.00,57.81,Weather logger V3.0.,2017-10-23 16:57:00,
2017-10-23 10:02:00,57.9,34.3,30.59,East,96,0.4,2.5,41,0.00,,,0.00,57.21,Weather logger V3.0.,2017-10-23 17:02:00,
2017-10-23 10:07:00,58.3,34.7,30.59,ESE,104,0.0,0.0,41,0.00,,,0.00,58.68,Weather logger V3.0.,2017-10-23 17:07:00,
2017-10-23 10:12:00,58.8,35.2,30.59,East,97,0.2,2.5,41,0.00,,,0.00,59.87,Weather logger V3.0.,2017-10-23 17:12:00,
2017-10-23 10:17:00,58.8,35.2,30.59,ENE,75,0.9,2.5,41,0.00,,,0.00,63.53,Weather logger V3.0.,2017-10-23 17:17:00,
2017-10-23 10:22:00,58.8,35.8,30.60,ENE,73,4.0,4.9,42,0.00,,,0.00,69.21,Weather logger V3.0.,2017-10-23 17:22:00,
2017-10-23 10:27:00,58.5,35.4,30.59,East,84,0.9,2.5,42,0.00,,,0.00,74.06,Weather logger V3.0.,2017-10-23 17:27:00,
2017-10-23 10:32:00,57.9,35.1,30.59,East,80,3.6,4.9,42,0.00,,,0.00,81.84,Weather logger V3.0.,2017-10-23 17:32:00,
2017-10-23 10:37:00,57.6,34.7,30.59,ENE,78,1.1,2.5,42,0.00,,,0.00,85.39,Weather logger V3.0.,2017-10-23 17:37:00,
2017-10-23 10:42:00,57.2,34.3,30.60,ENE,78,0.2,2.5,42,0.00,,,0.00,89.27,Weather logger V3.0.,2017-10-23 17:42:00,
2017-10-23 10:47:00,56.8,33.4,30.60,ENE,70,1.1,2.5,41,0.00,,,0.00,88.18,Weather logger V3.0.,2017-10-23 17:47:00,
2017-10-23 10:57:00,56.8,33.4,30.59,East,79,0.9,2.5,41,0.00,,,0.00,106.37,Weather logger V3.0.,2017-10-23 17:57:00,
2017-10-23 11:03:00,57.0,32.9,30.59,East,97,1.1,2.5,40,0.00,,,0.00,113.60,Weather logger V3.0.,2017-10-23 18:03:00,
2017-10-23 11:08:00,57.4,33.3,30.60,ESE,108,0.0,0.0,40,0.00,,,0.00,120.93,Weather logger V3.0.,2017-10-23 18:08:00,
2017-10-23 11:13:00,57.9,33.8,30.60,SE,129,1.8,2.5,40,0.00,,,0.00,129.41,Weather logger V3.0.,2017-10-23 18:13:00,
2017-10-23 11:18:00,58.3,33.4,30.60,ENE,71,2.7,4.9,39,0.00,,,0.00,91.36,Weather logger V3.0.,2017-10-23 18:18:00,
2017-10-23 11:23:00,58.6,34.3,30.60,East,81,2.5,2.5,40,0.00,,,0.00,135.71,Weather logger V3.0.,2017-10-23 18:23:00,
2017-10-23 11:28:00,59.0,34.7,30.60,East,81,3.4,4.9,40,0.00,,,0.00,117.98,Weather logger V3.0.,2017-10-23 18:28:00,
2017-10-23 11:33:00,59.4,35.1,30.60,NE,43,2.0,2.5,40,0.00,,,0.00,150.96,Weather logger V3.0.,2017-10-23 18:33:00,
2017-10-23 11:38:00,59.5,34.5,30.60,ENE,72,1.8,2.5,39,0.00,,,0.00,75.62,Weather logger V3.0.,2017-10-23 18:38:00,
2017-10-23 11:43:00,59.7,34.7,30.60,East,86,3.4,4.9,39,0.00,,,0.00,98.55,Weather logger V3.0.,2017-10-23 18:43:00,
2017-10-23 11:48:00,59.7,35.4,30.60,ENE,75,2.5,2.5,40,0.00,,,0.00,82.01,Weather logger V3.0.,2017-10-23 18:48:00,
2017-10-23 11:53:00,59.7,35.4,30.60,East,82,0.2,2.5,40,0.00,,,0.00,93.51,Weather logger V3.0.,2017-10-23 18:53:00,
2017-10-23 11:58:00,59.7,34.7,30.61,ENE,71,1.3,2.5,39,0.00,,,0.00,143.77,Weather logger V3.0.,2017-10-23 18:58:00,
2017-10-23 12:03:00,59.7,35.4,30.61,SE,126,0.0,0.0,40,0.00,,,0.00,71.22,Weather logger V3.0.,2017-10-23 19:03:00,
2017-10-23 12:09:00,59.5,35.2,30.61,ENE,63,0.4,2.5,40,0.00,,,0.00,71.40,Weather logger V3.0.,2017-10-23 19:09:00,
2017-10-23 12:14:00,59.5,35.2,30.61,ESE,122,0.9,2.5,40,0.00,,,0.00,71.59,Weather logger V3.0.,2017-10-23 19:14:00,
2017-10-23 12:19:00,59.5,35.2,30.61,ENE,72,2.7,4.9,40,0.00,,,0.00,72.09,Weather logger V3.0.,2017-10-23 19:19:00,
2017-10-23 12:24:00,59.7,34.2,30.61,ENE,70,3.4,4.9,38,0.00,,,0.00,72.18,Weather logger V3.0.,2017-10-23 19:24:00,
2017-10-23 12:29:00,59.7,33.4,30.61,NE,54,0.2,2.5,37,0.00,,,0.00,72.50,Weather logger V3.0.,2017-10-23 19:29:00,
2017-10-23 12:34:00,59.7,34.2,30.61,East,101,3.4,4.9,38,0.00,,,0.00,72.64,Weather logger V3.0.,2017-10-23 19:34:00,
2017-10-23 12:39:00,59.9,34.3,30.61,ENE,66,4.0,4.9,38,0.00,,,0.00,73.28,Weather logger V3.0.,2017-10-23 19:39:00,
2017-10-23 12:44:00,59.9,34.3,30.61,NE,41,0.9,2.5,38,0.00,,,0.00,318.79,Weather logger V3.0.,2017-10-23 19:44:00,
2017-10-23 12:49:00,60.1,34.3,30.61,NNE,24,1.8,2.5,38,0.00,,,0.00,327.81,Weather logger V3.0.,2017-10-23 19:49:00,
2017-10-23 12:54:00,60.1,34.3,30.61,ENE,73,2.5,4.9,38,0.00,,,0.00,124.57,Weather logger V3.0.,2017-10-23 19:54:00,
2017-10-23 12:59:00,60.3,34.0,30.61,East,84,1.3,2.5,37,0.00,,,0.00,342.43,Weather logger V3.0.,2017-10-23 19:59:00,
2017-10-23 13:04:00,60.4,34.2,30.62,NE,47,2.7,4.9,37,0.00,,,0.00,346.97,Weather logger V3.0.,2017-10-23 20:04:00,
2017-10-23 13:09:00,60.6,34.2,30.61,ENE,65,1.8,2.5,37,0.00,,,0.00,354.93,Weather logger V3.0.,2017-10-23 20:09:00,
2017-10-23 13:15:00,60.6,34.2,30.61,SSE,148,0.4,2.5,37,0.00,,,0.00,363.94,Weather logger V3.0.,2017-10-23 20:15:00,
2017-10-23 13:20:00,61.0,33.8,30.61,SE,146,0.4,2.5,36,0.00,,,0.00,364.67,Weather logger V3.0.,2017-10-23 20:20:00,
2017-10-23 13:25:00,61.2,34.0,30.62,East,79,0.0,0.0,36,0.00,,,0.00,364.41,Weather logger V3.0.,2017-10-23 20:25:00,
2017-10-23 13:30:00,61.3,34.9,30.61,ENE,71,2.7,4.9,37,0.00,,,0.00,370.21,Weather logger V3.0.,2017-10-23 20:30:00,
2017-10-23 13:35:00,61.5,33.6,30.61,NE,47,1.1,2.5,35,0.00,,,0.00,369.48,Weather logger V3.0.,2017-10-23 20:35:00,
2017-10-23 13:40:00,61.7,33.1,30.61,ENE,75,2.0,4.9,34,0.00,,,0.00,375.81,Weather logger V3.0.,2017-10-23 20:40:00,
2017-10-23 13:45:00,61.9,34.0,30.61,ENE,78,0.9,2.5,35,0.00,,,0.00,374.22,Weather logger V3.0.,2017-10-23 20:45:00,
2017-10-23 13:50:00,62.1,33.4,30.61,East,86,0.4,2.5,34,0.00,,,0.00,373.39,Weather logger V3.0.,2017-10-23 20:50:00,
2017-10-23 13:55:00,62.2,32.9,30.61,SE,133,0.0,0.0,33,0.00,,,0.00,376.34,Weather logger V3.0.,2017-10-23 20:55:00,
2017-10-23 14:00:00,62.4,32.9,30.61,WNW,287,2.5,2.5,33,0.00,,,0.00,379.06,Weather logger V3.0.,2017-10-23 21:00:00,
2017-10-23 14:05:00,62.4,32.2,30.61,ESE,117,0.0,0.0,32,0.00,,,0.00,379.46,Weather logger V3.0.,2017-10-23 21:05:00,
2017-10-23 14:10:00,62.6,31.6,30.61,NE,55,2.7,4.9,31,0.00,,,0.00,380.48,Weather logger V3.0.,2017-10-23 21:10:00,
2017-10-23 14:15:00,62.6,32.4,30.61,ENE,71,0.9,2.5,32,0.00,,,0.00,378.36,Weather logger V3.0.,2017-10-23 21:15:00,
2017-10-23 14:20:00,62.8,32.5,30.61,ENE,77,0.4,2.5,32,0.00,,,0.00,375.58,Weather logger V3.0.,2017-10-23 21:20:00,
2017-10-23 14:25:00,62.8,32.5,30.61,ENE,68,0.9,2.5,32,0.00,,,0.00,374.15,Weather logger V3.0.,2017-10-23 21:25:00,
2017-10-23 14:31:00,62.8,32.5,30.61,ESE,113,0.4,2.5,32,0.00,,,0.00,375.25,Weather logger V3.0.,2017-10-23 21:31:00,
2017-10-23 14:36:00,63.0,32.7,30.61,NE,48,2.9,4.9,32,0.00,,,0.00,373.06,Weather logger V3.0.,2017-10-23 21:36:00,
2017-10-23 14:41:00,63.0,32.7,30.61,ENE,60,0.2,2.5,32,0.00,,,0.00,371.93,Weather logger V3.0.,2017-10-23 21:41:00,
2017-10-23 14:46:00,63.1,32.0,30.61,NE,54,2.5,4.9,31,0.00,,,0.00,367.92,Weather logger V3.0.,2017-10-23 21:46:00,
2017-10-23 14:51:00,63.1,32.0,30.61,SSE,162,0.0,0.0,31,0.00,,,0.00,369.84,Weather logger V3.0.,2017-10-23 21:51:00,
2017-10-23 14:56:00,63.5,31.6,30.60,SE,136,0.9,2.5,30,0.00,,,0.00,368.45,Weather logger V3.0.,2017-10-23 21:56:00,
2017-10-23 15:01:00,63.7,31.6,30.61,East,81,1.8,2.5,30,0.00,,,0.00,365.34,Weather logger V3.0.,2017-10-23 22:01:00,
2017-10-23 15:06:00,63.5,31.6,30.61,East,82,2.5,2.5,30,0.00,,,0.00,360.26,Weather logger V3.0.,2017-10-23 22:06:00,
2017-10-23 15:11:00,63.5,31.6,30.61,ENE,76,2.0,2.5,30,0.00,,,0.00,358.14,Weather logger V3.0.,2017-10-23 22:11:00,
2017-10-23 15:16:00,63.5,31.6,30.61,NE,42,2.7,4.9,30,0.00,,,0.00,353.67,Weather logger V3.0.,2017-10-23 22:16:00,
2017-10-23 15:21:00,63.5,34.0,30.61,East,86,0.4,2.5,33,0.00,,,0.00,352.81,Weather logger V3.0.,2017-10-23 22:21:00,
2017-10-23 15:26:00,63.5,31.6,30.60,NW,313,0.9,2.5,30,0.00,,,0.00,350.12,Weather logger V3.0.,2017-10-23 22:26:00,
2017-10-23 15:31:00,63.7,31.6,30.60,WSW,246,0.4,2.5,30,0.00,,,0.00,347.47,Weather logger V3.0.,2017-10-23 22:31:00,
2017-10-23 15:36:00,63.9,33.4,30.60,WSW,251,1.1,2.5,32,0.00,,,0.00,343.69,Weather logger V3.0.,2017-10-23 22:36:00,
2017-10-23 15:41:00,64.0,33.6,30.60,ESE,122,1.3,4.9,32,0.00,,,0.00,342.60,Weather logger V3.0.,2017-10-23 22:41:00,
2017-10-23 15:47:00,64.2,33.8,30.60,NNE,20,0.4,2.5,32,0.00,,,0.00,339.81,Weather logger V3.0.,2017-10-23 22:47:00,
2017-10-23 15:49:00,64.4,34.0,30.60,ENE,75,0.0,0.0,32,0.00,,,0.00,338.05,Weather logger V3.0.,2017-10-23 22:49:00,
2017-10-23 15:54:00,64.6,34.2,30.61,NE,47,2.5,2.5,32,0.00,,,0.00,334.87,Weather logger V3.0.,2017-10-23 22:54:00,
2017-10-23 15:59:00,64.9,34.3,30.61,ENE,67,3.4,4.9,32,0.00,,,0.00,329.57,Weather logger V3.0.,2017-10-23 22:59:00,
2017-10-23 16:04:00,65.1,34.5,30.60,NE,47,0.0,0.0,32,0.00,,,0.00,325.42,Weather logger V3.0.,2017-10-23 23:04:00,
2017-10-23 16:09:00,65.3,34.0,30.60,East,90,0.0,0.0,31,0.00,,,0.00,320.32,Weather logger V3.0.,2017-10-23 23:09:00,
2017-10-23 16:15:00,65.7,34.2,30.60,ENE,78,0.2,2.5,31,0.00,,,0.00,316.04,Weather logger V3.0.,2017-10-23 23:15:00,
2017-10-23 16:20:00,65.8,33.6,30.60,NW,322,3.6,4.9,30,0.00,,,0.00,308.25,Weather logger V3.0.,2017-10-23 23:20:00,
2017-10-23 16:25:00,66.0,34.5,30.60,SSE,153,2.9,4.9,31,0.00,,,0.00,300.56,Weather logger V3.0.,2017-10-23 23:25:00,
2017-10-23 16:30:00,66.0,34.5,30.60,WNW,299,0.2,2.5,31,0.00,,,0.00,292.37,Weather logger V3.0.,2017-10-23 23:30:00,
2017-10-23 16:33:00,66.2,34.7,30.60,SW,216,1.8,2.5,31,0.00,,,0.00,286.84,Weather logger V3.0.,2017-10-23 23:33:00,
2017-10-23 16:39:00,66.4,34.9,30.60,South,171,0.2,2.5,31,0.00,,,0.00,278.85,Weather logger V3.0.,2017-10-23 23:39:00,
2017-10-23 16:44:00,66.4,34.9,30.59,WSW,237,0.0,0.0,31,0.00,,,0.00,272.35,Weather logger V3.0.,2017-10-23 23:44:00,
2017-10-23 16:49:00,66.4,34.9,30.59,SSW,206,0.0,0.0,31,0.00,,,0.00,264.66,Weather logger V3.0.,2017-10-23 23:49:00,
2017-10-23 16:54:00,66.6,34.2,30.59,SSW,210,0.0,0.0,30,0.00,,,0.00,255.08,Weather logger V3.0.,2017-10-23 23:54:00,
2017-10-23 16:59:00,66.7,34.3,30.59,SSW,193,0.0,0.0,30,0.00,,,0.00,245.27,Weather logger V3.0.,2017-10-23 23:59:00,
2017-10-23 17:04:00,66.9,33.6,30.59,SSW,201,0.0,0.0,29,0.00,,,0.00,234.10,Weather logger V3.0.,2017-10-24 00:04:00,
2017-10-23 17:09:00,66.9,33.6,30.60,SSE,160,0.0,0.0,29,0.00,,,0.00,221.43,Weather logger V3.0.,2017-10-24 00:09:00,
2017-10-23 17:14:00,67.1,35.4,30.59,SSW,192,0.0,0.0,31,0.00,,,0.00,209.47,Weather logger V3.0.,2017-10-24 00:14:00,
2017-10-23 17:19:00,67.3,35.6,30.59,WSW,241,1.3,2.5,31,0.00,,,0.00,194.05,Weather logger V3.0.,2017-10-24 00:19:00,
2017-10-23 17:20:00,67.3,35.6,30.59,SSW,201,0.0,0.0,31,0.00,,,0.00,192.53,Weather logger V3.0.,2017-10-24 00:20:00,
2017-10-23 17:25:00,67.1,35.4,30.59,SW,231,0.0,0.0,31,0.00,,,0.00,176.85,Weather logger V3.0.,2017-10-24 00:25:00,
2017-10-23 17:30:00,66.9,36.1,30.59,WSW,255,0.0,0.0,32,0.00,,,0.00,161.24,Weather logger V3.0.,2017-10-24 00:30:00,
2017-10-23 17:35:00,66.7,36.0,30.59,ENE,68,0.4,2.5,32,0.00,,,0.00,143.87,Weather logger V3.0.,2017-10-24 00:35:00,
2017-10-23 17:40:00,66.4,35.6,30.59,South,189,0.0,0.0,32,0.00,,,0.00,125.80,Weather logger V3.0.,2017-10-24 00:40:00,
2017-10-23 17:45:00,66.0,35.4,30.59,South,187,0.0,0.0,32,0.00,,,0.00,106.31,Weather logger V3.0.,2017-10-24 00:45:00,
2017-10-23 17:50:00,65.7,35.8,30.59,SSW,195,0.0,0.0,33,0.00,,,0.00,39.77,Weather logger V3.0.,2017-10-24 00:50:00,
2017-10-23 17:55:00,65.5,34.2,30.59,SSW,206,0.0,0.0,31,0.00,,,0.00,19.17,Weather logger V3.0.,2017-10-24 00:55:00,
2017-10-23 18:00:00,64.8,31.8,30.59,SSW,211,0.0,0.0,29,0.00,,,0.00,13.64,Weather logger V3.0.,2017-10-24 01:00:00,
2017-10-23 18:05:00,64.0,32.0,30.59,West,271,0.0,0.0,30,0.00,,,0.00,10.92,Weather logger V3.0.,2017-10-24 01:05:00,
2017-10-23 18:10:00,63.3,32.2,30.59,West,271,0.0,0.0,31,0.00,,,0.00,7.21,Weather logger V3.0.,2017-10-24 01:10:00,
2017-10-23 18:15:00,62.6,33.1,30.58,SE,138,0.0,0.0,33,0.00,,,0.00,4.46,Weather logger V3.0.,2017-10-24 01:15:00,
2017-10-23 18:20:00,61.7,32.4,30.59,WSW,243,0.0,0.0,33,0.00,,,0.00,1.77,Weather logger V3.0.,2017-10-24 01:20:00,
2017-10-23 18:25:00,60.8,32.4,30.58,NNW,345,0.0,0.0,34,0.00,,,0.00,0.06,Weather logger V3.0.,2017-10-24 01:25:00,
2017-10-23 18:31:00,60.4,32.0,30.58,WSW,241,0.0,0.0,34,0.00,,,0.00,0.00,Weather logger V3.0.,2017-10-24 01:31:00,
2017-10-23 18:36:00,60.1,31.6,30.58,SSW,208,0.0,0.0,34,0.00,,,0.00,0.00,Weather logger V3.0.,2017-10-24 01:36:00,
2017-10-23 18:41:00,59.7,32.7,30.58,WSW,239,0.0,0.0,36,0.00,,,0.00,0.00,Weather logger V3.0.,2017-10-24 01:41:00,
2017-10-23 18:46:00,59.4,31.1,30.58,WNW,300,2.9,4.9,34,0.00,,,0.00,0.00,Weather logger V3.0.,2017-10-24 01:46:00,
2017-10-23 18:51:00,59.2,30.9,30.58,West,271,0.2,2.5,34,0.00,,,0.00,0.00,Weather logger V3.0.,2017-10-24 01:51:00,
2017-10-23 18:56:00,59.0,31.5,30.58,NNW,337,0.0,0.0,35,0.00,,,0.00,0.00,Weather logger V3.0.,2017-10-24 01:56:00,
2017-10-23 19:01:00,58.6,31.1,30.59,West,271,0.0,0.0,35,0.00,,,0.00,0.00,Weather logger V3.0.,2017-10-24 02:01:00,
2017-10-23 19:06:00,58.5,30.9,30.59,NW,322,0.0,0.0,35,0.00,,,0.00,0.00,Weather logger V3.0.,2017-10-24 02:06:00,
2017-10-23 19:11:00,58.3,30.7,30.59,SSW,200,0.0,0.0,35,0.00,,,0.00,0.00,Weather logger V3.0.,2017-10-24 02:11:00,
2017-10-23 19:16:00,58.3,30.0,30.58,SSW,211,0.0,0.0,34,0.00,,,0.00,0.00,Weather logger V3.0.,2017-10-24 02:16:00,
2017-10-23 19:21:00,58.1,29.1,30.58,WSW,245,0.2,2.5,33,0.00,,,0.00,0.00,Weather logger V3.0.,2017-10-24 02:21:00,
2017-10-23 19:26:00,58.1,28.4,30.58,WSW,238,0.0,0.0,32,0.00,,,0.00,0.00,Weather logger V3.0.,2017-10-24 02:26:00,
2017-10-23 19:31:00,58.3,28.6,30.58,SSW,203,0.0,0.0,32,0.00,,,0.00,0.00,Weather logger V3.0.,2017-10-24 02:31:00,
2017-10-23 19:36:00,58.5,28.0,30.58,West,277,2.5,2.5,31,0.00,,,0.00,0.00,Weather logger V3.0.,2017-10-24 02:36:00,
2017-10-23 19:41:00,58.6,29.7,30.58,WNW,303,1.3,2.5,33,0.00,,,0.00,0.00,Weather logger V3.0.,2017-10-24 02:41:00,
2017-10-23 19:47:00,58.6,29.7,30.58,SSW,199,1.1,2.5,33,0.00,,,0.00,0.00,Weather logger V3.0.,2017-10-24 02:47:00,
2017-10-23 19:52:00,58.6,29.7,30.59,SSW,195,0.0,0.0,33,0.00,,,0.00,0.00,Weather logger V3.0.,2017-10-24 02:52:00,
2017-10-23 19:57:00,58.5,29.5,30.58,West,275,2.0,2.5,33,0.00,,,0.00,0.00,Weather logger V3.0.,2017-10-24 02:57:00,
2017-10-23 20:02:00,58.3,28.6,30.58,SSW,196,0.0,0.0,32,0.00,,,0.00,0.00,Weather logger V3.0.,2017-10-24 03:02:00,
2017-10-23 20:07:00,58.1,28.4,30.58,WSW,243,1.3,2.5,32,0.00,,,0.00,0.00,Weather logger V3.0.,2017-10-24 03:07:00,
2017-10-23 20:15:00,58.1,27.7,30.58,West,271,2.0,2.5,31,0.00,,,0.00,0.00,Weather logger V3.0.,2017-10-24 03:15:00,
2017-10-23 20:20:00,58.1,27.7,30.58,SW,234,0.0,0.0,31,0.00,,,0.00,0.00,Weather logger V3.0.,2017-10-24 03:20:00,
2017-10-23 20:25:00,58.5,28.0,30.58,SSW,208,0.4,2.5,31,0.00,,,0.00,0.00,Weather logger V3.0.,2017-10-24 03:25:00,
2017-10-23 20:30:00,58.6,28.0,30.58,SW,222,0.0,0.0,31,0.00,,,0.00,0.00,Weather logger V3.0.,2017-10-24 03:30:00,
2017-10-23 20:31:00,58.8,28.2,30.58,West,271,2.0,2.5,31,0.00,,,0.00,0.00,Weather logger V3.0.,2017-10-24 03:31:00,
2017-10-23 20:36:00,59.0,28.4,30.58,SW,229,0.2,2.5,31,0.00,,,0.00,0.00,Weather logger V3.0.,2017-10-24 03:36:00,
2017-10-23 20:41:00,59.4,28.8,30.58,SSW,205,0.0,0.0,31,0.00,,,0.00,0.00,Weather logger V3.0.,2017-10-24 03:41:00,
2017-10-23 20:47:00,59.5,28.9,30.57,West,271,0.2,2.5,31,0.00,,,0.00,0.00,Weather logger V3.0.,2017-10-24 03:47:00,
2017-10-23 20:52:00,59.5,28.9,30.57,SW,235,0.0,0.0,31,0.00,,,0.00,0.00,Weather logger V3.0.,2017-10-24 03:52:00,
2017-10-23 20:57:00,59.4,28.8,30.57,WNW,292,0.9,2.5,31,0.00,,,0.00,0.00,Weather logger V3.0.,2017-10-24 03:57:00,
2017-10-23 21:02:00,59.5,28.9,30.57,WSW,247,0.4,2.5,31,0.00,,,0.00,0.00,Weather logger V3.0.,2017-10-24 04:02:00,
2017-10-23 21:07:00,59.5,28.9,30.57,West,272,1.3,2.5,31,0.00,,,0.00,0.00,Weather logger V3.0.,2017-10-24 04:07:00,
2017-10-23 21:12:00,59.5,28.9,30.57,WSW,243,0.0,0.0,31,0.00,,,0.00,0.00,Weather logger V3.0.,2017-10-24 04:12:00,
2017-10-23 21:17:00,59.5,28.9,30.57,West,271,0.4,2.5,31,0.00,,,0.00,0.00,Weather logger V3.0.,2017-10-24 04:17:00,
2017-10-23 21:23:00,59.7,29.1,30.57,WNW,298,1.8,2.5,31,0.00,,,0.00,0.00,Weather logger V3.0.,2017-10-24 04:23:00,
2017-10-23 21:28:00,59.7,29.1,30.57,SW,229,1.3,2.5,31,0.00,,,0.00,0.00,Weather logger V3.0.,2017-10-24 04:28:00,
2017-10-23 21:33:00,59.7,29.1,30.57,West,271,2.0,2.5,31,0.00,,,0.00,0.00,Weather logger V3.0.,2017-10-24 04:33:00,
2017-10-23 21:38:00,59.7,29.1,30.57,West,271,0.9,2.5,31,0.00,,,0.00,0.00,Weather logger V3.0.,2017-10-24 04:38:00,
2017-10-23 21:43:00,59.9,29.3,30.57,West,272,0.0,0.0,31,0.00,,,0.00,0.00,Weather logger V3.0.,2017-10-24 04:43:00,
2017-10-23 21:48:00,59.9,29.3,30.56,West,271,1.8,2.5,31,0.00,,,0.00,0.00,Weather logger V3.0.,2017-10-24 04:48:00,
2017-10-23 21:53:00,60.1,28.6,30.57,West,274,1.3,2.5,30,0.00,,,0.00,0.00,Weather logger V3.0.,2017-10-24 04:53:00,
2017-10-23 21:58:00,60.3,29.5,30.57,WNW,290,2.0,4.9,31,0.00,,,0.00,0.00,Weather logger V3.0.,2017-10-24 04:58:00,
2017-10-23 22:03:00,60.4,28.9,30.57,WNW,301,2.5,2.5,30,0.00,,,0.00,0.00,Weather logger V3.0.,2017-10-24 05:03:00,
2017-10-23 22:08:00,60.6,29.8,30.56,WSW,249,1.1,2.5,31,0.00,,,0.00,0.00,Weather logger V3.0.,2017-10-24 05:08:00,
2017-10-23 22:13:00,60.4,29.7,30.57,West,271,0.4,2.5,31,0.00,,,0.00,0.00,Weather logger V3.0.,2017-10-24 05:13:00,
2017-10-23 22:18:00,60.3,29.5,30.56,WNW,301,0.9,2.5,31,0.00,,,0.00,0.00,Weather logger V3.0.,2017-10-24 05:18:00,
2017-10-23 22:23:00,60.1,29.3,30.56,WNW,299,2.9,4.9,31,0.00,,,0.00,0.00,Weather logger V3.0.,2017-10-24 05:23:00,
2017-10-23 22:28:00,59.7,29.1,30.56,West,277,0.2,2.5,31,0.00,,,0.00,0.00,Weather logger V3.0.,2017-10-24 05:28:00,
2017-10-23 22:33:00,59.5,28.9,30.56,WNW,302,1.8,2.5,31,0.00,,,0.00,0.00,Weather logger V3.0.,2017-10-24 05:33:00,
2017-10-23 22:39:00,59.5,28.9,30.56,WNW,296,2.5,2.5,31,0.00,,,0.00,0.00,Weather logger V3.0.,2017-10-24 05:39:00,
2017-10-23 22:44:00,59.5,28.9,30.56,WNW,302,2.0,2.5,31,0.00,,,0.00,0.00,Weather logger V3.0.,2017-10-24 05:44:00,
2017-10-23 22:49:00,59.9,29.3,30.56,WNW,301,0.9,2.5,31,0.00,,,0.00,0.00,Weather logger V3.0.,2017-10-24 05:49:00,
2017-10-23 22:54:00,59.9,29.3,30.56,NW,319,0.0,0.0,31,0.00,,,0.00,0.00,Weather logger V3.0.,2017-10-24 05:54:00,
2017-10-23 22:59:00,59.9,29.3,30.56,NW,304,1.3,2.5,31,0.00,,,0.00,0.00,Weather logger V3.0.,2017-10-24 05:59:00,
2017-10-23 23:04:00,59.9,29.3,30.56,West,271,0.2,2.5,31,0.00,,,0.00,0.00,Weather logger V3.0.,2017-10-24 06:04:00,
2017-10-23 23:09:00,59.7,29.1,30.55,West,275,0.4,2.5,31,0.00,,,0.00,0.00,Weather logger V3.0.,2017-10-24 06:09:00,
2017-10-23 23:14:00,59.5,28.9,30.55,West,271,0.0,0.0,31,0.00,,,0.00,0.00,Weather logger V3.0.,2017-10-24 06:14:00,
2017-10-23 23:19:00,59.5,28.9,30.55,WSW,242,0.2,2.5,31,0.00,,,0.00,0.00,Weather logger V3.0.,2017-10-24 06:19:00,
2017-10-23 23:24:00,59.5,28.9,30.55,WSW,240,0.9,2.5,31,0.00,,,0.00,0.00,Weather logger V3.0.,2017-10-24 06:24:00,
2017-10-23 23:29:00,59.5,30.4,30.55,WSW,254,0.0,0.0,33,0.00,,,0.00,0.00,Weather logger V3.0.,2017-10-24 06:29:00,
2017-10-23 23:34:00,59.4,30.2,30.55,WNW,301,2.7,4.9,33,0.00,,,0.00,0.00,Weather logger V3.0.,2017-10-24 06:34:00,
2017-10-23 23:39:00,59.0,29.3,30.55,WSW,242,0.9,2.5,32,0.00,,,0.00,0.00,Weather logger V3.0.,2017-10-24 06:39:00,
2017-10-23 23:44:00,58.5,29.5,30.54,WNW,285,1.8,2.5,33,0.00,,,0.00,0.00,Weather logger V3.0.,2017-10-24 06:44:00,
2017-10-23 23:49:00,57.9,27.5,30.54,WNW,300,0.0,0.0,31,0.00,,,0.00,0.00,Weather logger V3.0.,2017-10-24 06:49:00,